{"data":{"norad_id":52464,"intl_designator":"2022-049P","name":"STARLINK-3904","alt_names":[],"object_type":"PAYLOAD","status":"ACTIVE","operator":null,"country":"US","launch_date":"2022-05-06","launch_site_code":"AFETR","launch_vehicle":null,"mission":null,"orbit_class":"UNKNOWN","rcs_meters":null,"size_class":null,"mass_kg":null,"dimensions":null,"purposes":["comms"],"wikipedia_slug":null,"has_3d_model":false,"image_url":null,"decayed_at":null,"tle_current":{"epoch":"2026-09-20T02:37:19.829856Z","epoch_age_seconds":97062,"freshness":"FRESH","line1":"1 52464U 22049P   26263.10925729  .00000548  00000+0  26626-4 0  9994","line2":"2 52464  53.1597 255.3939 0001296  84.0732 276.0419 15.35401867241748","mean_motion":15.35401867,"eccentricity":0.0001296,"inclination_deg":53.1597,"raan_deg":255.3939,"arg_perigee_deg":84.0732,"mean_anomaly_deg":276.0419,"bstar":2.6626e-5,"rev_number":24174,"period_min":93.786521362879,"perigee_km":458.84091246417,"apogee_km":460.61328683879,"semimajor_km":6837.8640996515,"source":"CELESTRAK","updated_at":"2026-09-20T09:00:40.033948Z"}}}